World > North America > United States > Ohio > Broadview Heights

Hourly Broadview Heights, OH Regional Weather

Feedback E-mail the Weather

Quick WX

Broadview Heights, OH Weather Maps

°F °C°F °C
Broadview Heights Weather Map
UTC Time: 8/10/2022, 12:13
Your Time:

Broadview Heights, OH Regional Weather

Expires:202208101300;;790691
ASUS41 KCLE 101210
RWRCLE
OHIO REGIONAL WEATHER ROUNDUP
NATIONAL WEATHER SERVICE CLEVELAND, OH
800 AM EDT WED AUG 10 2022

NOTE: "FAIR" INDICATES FEW OR NO CLOUDS BELOW 12,000 FEET WITH NO
SIGNIFICANT WEATHER AND/OR OBSTRUCTIONS TO VISIBILITY.


OHZ009>014-019>023-028>033-038-089-101300-
   NORTHEAST OHIO
  
CITY           SKY/WX    TMP DP  RH WIND       PRES   REMARKS
CLE-HOPKINS    PTSUNNY   68  61  78 CALM      30.14R                  
CLE-LAKEFRONT  MOSUNNY   69  61  75 S5        30.14R                  
CUY CO. ARPT   MOSUNNY   66  64  94 CALM      30.16R                  
LORAIN-ELYRIA  CLOUDY    66  63  90 CALM      30.16R                  
ASHTABULA      MOSUNNY   63  60  90 CALM      30.16R                  
AKRON-CANTON   CLOUDY    69  62  78 NE3       30.15R                  
WOOSTER        CLOUDY    67  64  90 NE3       30.16R                  
MANSFIELD      CLOUDY    67  64  90 NE3       30.16R                  
YOUNGSTOWN     PTSUNNY   66  60  81 CALM      30.16R                  
$$


SKY/WX - Weather  TMP - Temperature  DP - Dew Point  RH - Humidity
WIND - Wind Direction/Speed PRES - Barometric Pressure VSB - Visibility
WCI - Wind Chill Index E13G22 Wind - East Wind 13 mph/Gusts of 22 mph

Trending Headlines

Broadview Heights Radar Loop



Broadview Heights Quick Facts


National Two Day Weather Forecast


E-mail the Broadview Heights Weather Forecast

Voice your opinion or tell us about page issues...